DELTA 1 DEB, 28266

Orbit data source: Space-Track

DELTA 1 DEB, 28266 is space debris in LEO originally from a launch on Thu, 04 Jul 1968 UTC launched from the Air Force Western Test Range (AFWTR). Debris objects in space refer to the collection of defunct objects orbiting the Earth. Examples of debris include non-operational satellites, rocket bodies, and fragments generated from explosions, collisions, or faulty payload assembly.

Loading next visibility...
DELTA 1 DEB details
Identifier
28266, 1968-055L
Orbit
LEO
Last TLE update1 week ago
Origin
Flag of USGSFC (US)
ManufacturerUnknown
MissionSpacecraft
Bus & MotorUnknown
MassUnknown
Launch date (UTC)
1968-07-04 (56 years ago)
Launch vehicleUnknown
Launch site
Air Force Western Test Range (AFWTR)
Object type
Payload
Rocket body
Debris
Shape & HBRUnknown
Radar Cross SectionSmall (<0.1 m²)

Expand to show TLE details & history

TLE from 1 week ago
0 DELTA 1 DEB
1 28266U 68055L   24346.84198036  .00004802  00000-0  11326-1 0  9994
2 28266 120.6727  23.3688 1757906 196.3028 157.3391 10.77470328460856
Epoch: 2024-12-11T20:12Z
Definitive object data (Epoch: 2024-12-11T20:12:27.103Z)
Latitude0.00002°
Longitude-0.77501°
Altitude3,718.497 km
Speed5.74 km/s
True Right ascension01h 33m 28s
True Declination0° 00' 00"
Sunlit
Object was in daylight at TLE epoch
Visualization TLE readout
Latitude-27.92725°
Longitude35.70752°
Altitude2,976.632 km
Speed6.264 km/s
Apparent Right ascension03h 38m 13s
Apparent Declination-32° 49' 44"
Sunlit
Object is in daylight
Visualization observer readout
Local Sidereal Time15:02:21
Azimuth311.731° NW
Elevation-79.894°
Doppler factor1
Orbital elements
Apogee altitude3,802.288 km
Perigee altitude758.169 km
Semi-major axis8,658.365 km
Eccentricity0.1757906
Inclination120.6727°
RAAN23.3688°
Arg. of periapsis196.3028°
True anomaly163.77234°
Mean anomaly157.3391°
Eccentric anomaly160.67261°
Mean motion2.69395 °/min
BSTAR0.011326
Orbital period133.63 mins
Loading maneuver chart data...
Loading historical data...
Loading historical data...
Loading historical data...
Loading historical data...
Loading historical data...
Loading historical data...
Loading historical data...

DELTA 1 DEB Visibility forecast

Observer location: undefined°, undefined

Span
Click to sort rows by Start time (UTC) header in descending order
Start Az.
Max El. time (UTC)
Max El. Az.
Max El.
End time (UTC)
End Az.
16 mins2024-12-21 17:04:58.397Z44.814° NE2024-12-21 17:14:58.397Z110.379° ESE42.831°2024-12-21 17:20:58.397Z209.284° SW
18 mins2024-12-21 19:11:58.397Z39.718° NE2024-12-21 19:22:58.397Z330.665° NNW34.896°2024-12-21 19:29:58.397Z268.897° W
21 mins2024-12-21 21:14:58.397Z56.115° ENE2024-12-21 21:26:58.397Z4.048° NNE29.564°2024-12-21 21:35:58.397Z305.837° NW
28 mins2024-12-21 23:14:58.397Z88.959° E2024-12-21 23:30:58.397Z25.892° NE36.725°2024-12-21 23:42:58.397Z319.22° NNW
34 mins2024-12-22 01:16:58.397Z128.335° SE2024-12-22 01:35:58.397Z14.53° NNE44.892°2024-12-22 01:50:58.397Z318.172° NNW
32 mins2024-12-22 03:24:58.397Z173.717° S2024-12-22 03:40:58.397Z236.749° WSW35.404°2024-12-22 03:56:58.397Z306.291° NW
6 mins2024-12-22 15:30:58.397Z82.174° E2024-12-22 15:33:58.397Z106.747° ESE14.873°2024-12-22 15:36:58.397Z135.513° SSE
|